sat.trackr.live / text

‹ back to catalog

AAC-AIS-SAT2

NORAD 56996 · 2023-084BY

PAYLOAD ACTIVE UNKNOWN

§ Identity

Operator
Country
UK
Launch date
2023-06-12
Launch site
AFWTR
Launch vehicle
Mass (kg)
RCS (m²)

External: N2YO · Heavens-Above · Gunter

§ Orbital elements

Epoch: 2026-09-21T22:37:09.167808Z

Period
96.91 min
Inclination
98.1618°
Eccentricity
0.0057201
Mean motion
14.85917129 rev/d
Perigee alt
570.7 km
Apogee alt
650.7 km
Semi-major
6,988.8 km
B*
2.7801e-4
RAAN
47.2001°
Arg perigee
142.3787°
Mean anomaly
218.1450°
Rev number
16,774

§ Raw data

AAC-AIS-SAT21 56996U 23084BY  26264.94246722  .00002436  00000+0  27801-3 0  99932 56996  98.1618  47.2001 0057201 142.3787 218.1450 14.85917129167744

JSON: /api/v1/satellites/56996 · /tle

For live sub-satellite position, see the globe view (requires WebGL).

§ Visibility from observer

Set your observer location to see the next 7 days of passes ≥ 10°. The values pass through the URL so the page stays shareable.

No JS? Fill the form by hand. The geolocation button needs JavaScript.

§ Radio — SatNOGS DB

ModeDescriptionDownlinkUplink
BPSK S-band telemetry 2.241 GHz

1 transmitter · refreshed weekly from db.satnogs.org